Wrangell, AK

3:35 PM AKDT on April 24, 2018 (GMT -0800)
Wrangell

Weather History for PAWG - October, 2011

Change the Weather History Date:

Wednesday, October 19, 2011

  Actual Average Record
Temperature  
Mean Temperature 44 °F -  
Max Temperature 46 °F 48 °F 62 °F (1952)
Min Temperature 41 °F 38 °F 28 °F (1950)
Degree Days  
Heating Degree Days 22    
Moisture  
Dew Point 40 °F    
Average Humidity 85    
Maximum Humidity 93    
Minimum Humidity 76    
Precipitation  
Precipitation 0.00 in - - ()
Sea Level Pressure  
Sea Level Pressure 29.88 in    
Wind  
Wind Speed 3 mph (SSE)    
Max Wind Speed 13 mph    
Max Gust Speed 16 mph    
Visibility 9 miles    
Events      
Averages and records for this station are not official NWS values.
T = Trace of Precipitation, MM = Missing Value Source: NWS Daily Summary

Daily Weather History Graph

Daily Weather History Graph

Search for Another Location

Airport or City:

Astronomy

Oct. 19, 2011 Rise Set
Actual Time 7:29 AM AKDT 5:37 PM AKDT
Civil Twilight 6:51 AM AKDT 6:16 PM AKDT
Nautical Twilight 6:07 AM AKDT 6:59 PM AKDT
Astronomical Twilight 5:24 AM AKDT 7:43 PM AKDT
Moon 11:04 PM AKDT (10/19) 2:35 PM AKDT (10/19)
Length of Visible Light 11h 24m
Length of Day
10h 08m
Waning Gibbous, 53% of the Moon is Illuminated
Oct 19
Waning Gibbous
Oct 19
Last Quarter
Oct 26
New
Nov 2
First Quarter
Nov 10
Full

Hourly Weather History & Observations

Time (AKDT) Temp. Windchill Dew Point Humidity Pressure Visibility Wind Dir Wind Speed Gust Speed Precip Events Conditions
12:16 AM 46.4 °F - 41.0 °F 81% 29.86 in 9.0 mi Calm Calm - N/A   Overcast
12:36 AM 46.4 °F - 41.0 °F 81% 29.86 in 10.0 mi Calm Calm - N/A   Overcast
12:56 AM 46.4 °F 45.2 °F 42.8 °F 87% 29.86 in 9.0 mi West 3.5 mph - N/A   Overcast
1:16 AM 46.4 °F - 42.8 °F 87% 29.87 in 10.0 mi Calm Calm - N/A   Overcast
1:36 AM 44.6 °F 43.1 °F 42.8 °F 93% 29.86 in 8.0 mi West 3.5 mph - N/A   Overcast
1:56 AM 46.4 °F 45.2 °F 42.8 °F 87% 29.86 in 10.0 mi SSE 3.5 mph - N/A   Overcast
2:16 AM 44.6 °F - 42.8 °F 93% 29.87 in 10.0 mi Calm Calm - N/A   Overcast
2:36 AM 44.6 °F - 42.8 °F 93% 29.86 in 7.0 mi Calm Calm - N/A   Overcast
2:56 AM 44.6 °F 43.1 °F 42.8 °F 93% 29.86 in 10.0 mi SW 3.5 mph - N/A   Overcast
3:16 AM 44.6 °F - 42.8 °F 93% 29.86 in 10.0 mi Calm Calm - N/A   Overcast
3:36 AM 44.6 °F - 42.8 °F 93% 29.86 in 10.0 mi Calm Calm - N/A   Overcast
3:56 AM 44.6 °F - 41.0 °F 87% 29.86 in 10.0 mi Calm Calm - N/A   Overcast
4:16 AM 44.6 °F 43.1 °F 42.8 °F 93% 29.86 in 10.0 mi SE 3.5 mph - N/A   Overcast
4:36 AM 44.6 °F - 42.8 °F 93% 29.85 in 10.0 mi Calm Calm - N/A   Overcast
4:56 AM 44.6 °F - 42.8 °F 93% 29.85 in 10.0 mi Calm Calm - N/A   Overcast
5:16 AM 44.6 °F - 42.8 °F 93% 29.85 in 10.0 mi Calm Calm - N/A   Overcast
5:36 AM 44.6 °F - 42.8 °F 93% 29.85 in 10.0 mi Calm Calm - N/A   Overcast
5:56 AM 44.6 °F - 41.0 °F 87% 29.85 in 10.0 mi Calm Calm - N/A   Overcast
6:16 AM 44.6 °F 40.7 °F 41.0 °F 87% 29.84 in 10.0 mi East 6.9 mph - N/A   Overcast
6:36 AM 44.6 °F 39.7 °F 42.8 °F 93% 29.84 in 10.0 mi ESE 9.2 mph - N/A   Overcast
6:56 AM 44.6 °F 40.7 °F 41.0 °F 87% 29.84 in 10.0 mi ESE 6.9 mph - N/A   Overcast
7:16 AM 44.6 °F 39.7 °F 41.0 °F 87% 29.84 in 10.0 mi East 9.2 mph - N/A   Overcast
7:36 AM 44.6 °F 42.2 °F 41.0 °F 87% 29.84 in 10.0 mi ESE 4.6 mph - N/A   Overcast
7:56 AM 44.6 °F 43.1 °F 41.0 °F 87% 29.84 in 10.0 mi East 3.5 mph - N/A   Overcast
8:16 AM 44.6 °F - 39.2 °F 81% 29.84 in 10.0 mi Calm Calm - N/A   Overcast
8:36 AM 44.6 °F - 41.0 °F 87% 29.84 in 10.0 mi Calm Calm - N/A   Overcast
8:56 AM 44.6 °F 41.4 °F 39.2 °F 81% 29.84 in 10.0 mi ENE 5.8 mph - N/A   Overcast
9:16 AM 44.6 °F - 41.0 °F 87% 29.85 in 10.0 mi Calm Calm - N/A   Overcast
9:36 AM 44.6 °F - 41.0 °F 87% 29.85 in 10.0 mi Calm Calm - N/A   Overcast
9:56 AM 46.4 °F - 39.2 °F 76% 29.85 in 10.0 mi Calm Calm - N/A   Overcast
10:16 AM 46.4 °F - 41.0 °F 81% 29.85 in 10.0 mi Calm Calm - N/A   Overcast
10:36 AM 46.4 °F 45.2 °F 39.2 °F 76% 29.86 in 10.0 mi SSW 3.5 mph - N/A   Overcast
10:56 AM 46.4 °F - 42.8 °F 87% 29.86 in 10.0 mi Calm Calm - N/A   Overcast
11:16 AM 46.4 °F 44.3 °F 39.2 °F 76% 29.86 in 10.0 mi NNW 4.6 mph - N/A   Overcast
11:36 AM 46.4 °F 45.2 °F 41.0 °F 81% 29.86 in 10.0 mi East 3.5 mph - N/A   Overcast
11:56 AM 44.6 °F 43.1 °F 41.0 °F 87% 29.86 in 10.0 mi SSW 3.5 mph - N/A   Overcast
12:16 PM 44.6 °F - 41.0 °F 87% 29.87 in 10.0 mi Calm Calm - N/A   Overcast
12:36 PM 44.6 °F 40.7 °F 39.2 °F 81% 29.87 in 10.0 mi SW 6.9 mph - N/A   Overcast
12:56 PM 44.6 °F 39.2 °F 39.2 °F 81% 29.88 in 5.0 mi West 10.4 mph 16.1 mph N/A   Overcast
1:16 PM 42.8 °F 39.3 °F 39.2 °F 87% 29.89 in 5.0 mi NW 5.8 mph - N/A   Overcast
1:36 PM 42.8 °F 40.1 °F 39.2 °F 87% 29.89 in 5.0 mi NNW 4.6 mph - N/A   Overcast
1:56 PM 42.8 °F - 39.2 °F 87% 29.90 in 5.0 mi Calm Calm - N/A   Overcast
2:16 PM 42.8 °F 41.1 °F 39.2 °F 87% 29.90 in 5.0 mi WSW 3.5 mph - N/A   Overcast
2:36 PM 42.8 °F 36.2 °F 37.4 °F 81% 29.90 in 5.0 mi West 12.7 mph - N/A   Overcast
2:56 PM 42.8 °F 36.6 °F 37.4 °F 81% 29.91 in 5.0 mi West 11.5 mph - N/A   Overcast
3:16 PM 41.0 °F 38.0 °F 37.4 °F 87% 29.92 in 5.0 mi West 4.6 mph - N/A   Overcast
3:36 PM 42.8 °F 39.3 °F 37.4 °F 81% 29.92 in 5.0 mi WSW 5.8 mph - N/A   Overcast
3:56 PM 42.8 °F 41.1 °F 37.4 °F 81% 29.93 in 7.0 mi WSW 3.5 mph - N/A   Overcast
4:16 PM 42.8 °F - 37.4 °F 81% 29.93 in 10.0 mi Calm Calm - N/A   Overcast
4:36 PM 42.8 °F - 37.4 °F 81% 29.94 in 10.0 mi Calm Calm - N/A   Overcast
4:56 PM 42.8 °F 41.1 °F 37.4 °F 81% 29.94 in 10.0 mi East 3.5 mph - N/A   Overcast
5:16 PM 42.8 °F 40.1 °F 37.4 °F 81% 29.94 in 10.0 mi ESE 4.6 mph - N/A   Overcast
5:36 PM 42.8 °F 38.6 °F 37.4 °F 81% 29.94 in 10.0 mi SE 6.9 mph - N/A   Overcast
5:56 PM 42.8 °F 38.6 °F 37.4 °F 81% 29.95 in 10.0 mi ESE 6.9 mph - N/A   Overcast
6:16 PM 42.8 °F 38.6 °F 37.4 °F 81% 29.95 in 10.0 mi SE 6.9 mph - N/A   Overcast
6:36 PM 41.0 °F 37.1 °F 37.4 °F 87% 29.95 in 10.0 mi SE 5.8 mph - N/A   Overcast
6:56 PM 42.8 °F 38.6 °F 37.4 °F 81% 29.96 in 10.0 mi ESE 6.9 mph - N/A   Overcast
7:16 PM 42.8 °F 37.5 °F 37.4 °F 81% 29.96 in 10.0 mi ESE 9.2 mph - N/A   Overcast
7:36 PM 41.0 °F 36.4 °F 37.4 °F 87% 29.96 in 10.0 mi SE 6.9 mph - N/A   Overcast
7:56 PM 41.0 °F 36.4 °F 37.4 °F 87% 29.98 in 10.0 mi South 6.9 mph - N/A   Overcast
8:16 PM 41.0 °F 35.8 °F 37.4 °F 87% 29.98 in 10.0 mi SE 8.1 mph - N/A   Overcast
8:36 PM 41.0 °F 35.8 °F 37.4 °F 87% 29.98 in 10.0 mi SE 8.1 mph - N/A   Overcast
8:56 PM 41.0 °F 36.4 °F 37.4 °F 87% 29.99 in 10.0 mi SE 6.9 mph - N/A   Overcast
9:16 PM 41.0 °F 37.1 °F 37.4 °F 87% 29.99 in 10.0 mi ESE 5.8 mph - N/A   Overcast
9:36 PM 42.8 °F 37.5 °F 37.4 °F 81% 29.99 in 10.0 mi ESE 9.2 mph - N/A   Overcast
9:56 PM 42.8 °F 37.5 °F 37.4 °F 81% 30.00 in 10.0 mi ESE 9.2 mph - N/A   Overcast
10:16 PM 42.8 °F 38.0 °F 37.4 °F 81% 30.00 in 10.0 mi SE 8.1 mph - N/A   Overcast
10:36 PM 42.8 °F 39.3 °F 37.4 °F 81% 30.01 in 10.0 mi SE 5.8 mph - N/A   Overcast
10:56 PM 41.0 °F 37.1 °F 37.4 °F 87% 30.01 in 10.0 mi ESE 5.8 mph - N/A   Overcast
11:16 PM 41.0 °F - 37.4 °F 87% 30.02 in 10.0 mi Calm Calm - N/A   Mostly Cloudy
11:36 PM 42.8 °F 40.1 °F 37.4 °F 81% 30.02 in 10.0 mi ESE 4.6 mph - N/A   Overcast
11:56 PM 41.0 °F 36.4 °F 37.4 °F 87% 30.02 in 10.0 mi SE 6.9 mph - N/A   Mostly Cloudy